2023/09/03 00:00:00, 0.5,21.6
2023/09/03 00:10:00, 0.5,21.5
2023/09/03 00:20:00, 0.5,21.4
2023/09/03 00:30:00, 0.6,21.5
2023/09/03 00:40:00, 0.6,21.5
2023/09/03 00:50:00, 1.9,21.8
2023/09/03 01:00:00, 5.7,21.6
2023/09/03 01:10:00, 0.7,21.6
2023/09/03 01:20:00, 0.6,21.8
2023/09/03 01:30:00, 0.6,21.7
2023/09/03 01:40:00, 0.6,21.6
2023/09/03 01:50:00, 0.6,21.3
2023/09/03 02:00:00, 0.7,21.4
2023/09/03 02:10:00, 0.7,21.4
2023/09/03 02:20:00, 0.7,21.3
2023/09/03 02:30:00, 0.7,21.5
2023/09/03 02:40:00, 6.5,21.4
2023/09/03 02:50:00,12.0,21.4
2023/09/03 03:00:00,12.5,21.2
2023/09/03 03:10:00,12.9,21.5
2023/09/03 03:20:00,13.2,21.5
2023/09/03 03:30:00,13.7,21.4
2023/09/03 03:40:00,14.0,21.3
2023/09/03 03:50:00,14.0,21.2
2023/09/03 04:00:00,13.8,21.2
2023/09/03 04:10:00,10.5,21.2
2023/09/03 04:20:00, 6.2,21.2
2023/09/03 04:30:00, 3.2,21.1
2023/09/03 04:40:00, 1.5,20.9
2023/09/03 04:50:00, 1.2,21.1
2023/09/03 05:00:00, 6.8,21.1
2023/09/03 05:10:00,10.3,20.7
2023/09/03 05:20:00, 9.8,20.8
2023/09/03 05:30:00, 9.5,20.8
2023/09/03 05:40:00, 9.0,20.9
2023/09/03 05:50:00, 8.7,21.2
2023/09/03 06:00:00, 8.7,20.9
2023/09/03 06:10:00, 8.7,21.0
2023/09/03 06:20:00, 8.7,21.1
2023/09/03 06:30:00, 8.2,21.1
2023/09/03 06:40:00, 8.2,21.2
2023/09/03 06:50:00, 8.2,21.2
2023/09/03 07:00:00, 7.8,21.7
2023/09/03 07:10:00, 7.1,21.6
2023/09/03 07:20:00, 7.4,21.9
2023/09/03 07:30:00,---,23.5
2023/09/03 07:40:00, 0.0,24.8
2023/09/03 07:50:00, 6.6,24.1
2023/09/03 08:00:00, 6.1,23.7
2023/09/03 08:10:00, 5.8,23.6
2023/09/03 08:20:00, 5.5,24.1
2023/09/03 08:30:00, 5.3,24.3
2023/09/03 08:40:00, 0.0,26.3
2023/09/03 08:50:00,---,25.8
2023/09/03 09:00:00, 5.6,25.6
2023/09/03 09:10:00, 5.5,25.6
2023/09/03 09:20:00, 6.0,26.5
2023/09/03 09:30:00, 5.9,27.0
2023/09/03 09:40:00,---,27.8
2023/09/03 09:50:00, 5.2,27.4
2023/09/03 10:00:00, 0.5,26.8
2023/09/03 10:10:00, 0.0,26.9
2023/09/03 10:20:00, 0.0,27.1
2023/09/03 10:30:00, 1.2,27.8
2023/09/03 10:40:00, 4.8,28.5
2023/09/03 10:50:00, 6.2,28.8
2023/09/03 11:00:00, 6.3,28.2
2023/09/03 11:10:00, 5.7,29.1
2023/09/03 11:20:00, 2.1,29.6
2023/09/03 11:30:00, 0.3,30.1
2023/09/03 11:40:00, 0.2,30.6
2023/09/03 11:50:00, 0.1,32.0
2023/09/03 12:00:00, 0.2,32.3
2023/09/03 12:10:00, 0.8,31.8
2023/09/03 12:20:00, 3.0,31.8
2023/09/03 12:30:00, 3.4,31.8
2023/09/03 12:40:00, 3.6,31.9
2023/09/03 12:50:00, 1.6,32.1
2023/09/03 13:00:00, 0.2,32.0
2023/09/03 13:10:00, 0.2,32.1
2023/09/03 13:20:00, 0.2,32.0
2023/09/03 13:30:00, 0.2,32.9
2023/09/03 13:40:00, 0.9,33.0
2023/09/03 13:50:00, 2.6,33.3
2023/09/03 14:00:00, 2.2,33.5
2023/09/03 14:10:00, 1.3,33.9
2023/09/03 14:20:00, 0.4,32.2
2023/09/03 14:30:00, 0.2,32.8
2023/09/03 14:40:00, 0.2,32.7
2023/09/03 14:50:00, 0.2,32.8
2023/09/03 15:00:00, 0.3,31.8
2023/09/03 15:10:00, 0.2,32.3
2023/09/03 15:20:00, 0.3,31.2
2023/09/03 15:30:00, 0.2,31.0
2023/09/03 15:40:00, 0.2,30.3
2023/09/03 15:50:00, 0.1,31.1
2023/09/03 16:00:00, 0.0,31.5
2023/09/03 16:10:00, 0.1,31.7
2023/09/03 16:20:00, 0.0,31.2
2023/09/03 16:30:00, 0.1,31.2
2023/09/03 16:40:00, 0.2,30.8
2023/09/03 16:50:00, 0.2,31.1
2023/09/03 17:00:00, 0.2,31.5
2023/09/03 17:10:00, 0.2,32.2
2023/09/03 17:20:00, 0.2,32.2
2023/09/03 17:30:00, 0.2,30.1
2023/09/03 17:40:00, 0.1,28.3
2023/09/03 17:50:00, 0.0,27.6
2023/09/03 18:00:00, 0.0,27.2
2023/09/03 18:10:00, 0.0,27.0
2023/09/03 18:20:00, 0.3,26.6
2023/09/03 18:30:00, 0.4,26.1
2023/09/03 18:40:00, 0.3,25.8
2023/09/03 18:50:00, 0.3,25.5
2023/09/03 19:00:00, 0.3,25.4
2023/09/03 19:10:00, 0.2,25.1
2023/09/03 19:20:00, 0.3,25.1
2023/09/03 19:30:00, 0.3,24.7
2023/09/03 19:40:00, 0.3,24.7
2023/09/03 19:50:00, 0.2,24.6
2023/09/03 20:00:00, 0.2,24.5
2023/09/03 20:10:00, 0.3,24.2
2023/09/03 20:20:00, 0.3,24.0
2023/09/03 20:30:00, 0.2,24.0
2023/09/03 20:40:00, 0.3,23.9
2023/09/03 20:50:00, 0.2,23.7
2023/09/03 21:00:00, 0.3,23.5
2023/09/03 21:10:00, 0.3,23.3
2023/09/03 21:20:00, 0.3,23.3
2023/09/03 21:30:00, 0.3,23.3
2023/09/03 21:40:00, 0.4,22.9
2023/09/03 21:50:00, 0.5,23.1
2023/09/03 22:00:00, 4.5,22.8
2023/09/03 22:10:00, 5.4,22.7
2023/09/03 22:20:00, 5.2,22.5
2023/09/03 22:30:00, 4.7,22.6
2023/09/03 22:40:00, 1.9,22.3
2023/09/03 22:50:00, 0.6,22.4
2023/09/03 23:00:00, 0.5,22.4
2023/09/03 23:10:00, 0.5,22.3
2023/09/03 23:20:00, 0.5,22.2
2023/09/03 23:30:00, 0.5,22.0
2023/09/03 23:40:00, 0.4,21.8
2023/09/03 23:50:00, 0.4,21.8
